KHZR

Details ICAO KHZR
Name FALSE RIVER RGNL
Region United States
Timezone America/Chicago (UTC-5.0)
Plans Departing 1
Arriving 1
Stats Elevation 39 ft / 12 m (AMSL)
Location 30.718318° -91.478660°
Runways 1
Magnetic Variation 0.041° W
Sunrise 2018-05-27 11:06:36 UTC / 2018-05-27 06:06:36 Local
Sunset 2018-05-28 01:02:29 UTC / 2018-05-27 20:02:29 Local
Advertisement - Login to hide

Runways

ID Width Length Bearing (true) Bearing (mag) Surface Threshold Offset Overrun Length
18 75 ft / 23 m 5,016 ft / 1,529 m 184.28° 184.32° Asphalt 0 ft / 0 m 0 ft / 0 m
36 75 ft / 23 m 5,016 ft / 1,529 m 4.27° 4.31° Asphalt 0 ft / 0 m 0 ft / 0 m

Approach Navaids

Runway Type Ident Frequency Range Bearing (true) Bearing (mag) Slope Elevation
36 Localiser IHZR 111.90 MHz 18 nm / 33 km 4.28° 4.32° - 39 ft / 12 m (AMSL)

Map

Weather


0- 5 10 15 20 25 30 35+ Temperature / ° C

Clouds and Precipitation
Forecast for 2018-05-27 18:00 UTC. Updated 3 hours ago

Ground ~20,000 ft ~40,000 ft Winds

METAR

KHZR 272015Z AUTO 02005KT 10SM CLR 33/21 A2981 RMK AO2 T03300207

TAF

Not found

Frequencies

Recorded 121.25 MHz AWOS
Approach 120.30 MHz BATON ROUGE APP/DEP
Unicom 122.80 MHz CTAF/UNICOM
Warning: Do not use this data for real-world aviation or navigation. No guarantee of current accuracy is given.